Weather History for Peoria, IL

Change the Weather History Date:

Wednesday, May 15, 2013

  Actual Average Record
Temperature  
Mean Temperature 73 °F 62 °F  
Max Temperature 84 °F 73 °F 93 °F (1894)
Min Temperature 61 °F 51 °F 35 °F (1920)
Degree Days  
Heating Degree Days 0 5  
Month to date heating degree days 79 95  
Since 1 July heating degree days 5771 5760  
Cooling Degree Days 8 2  
Month to date cooling degree days 24 20  
Year to date cooling degree days 33 34  
Growing Degree Days 26 (Base 50)    
Moisture  
Dew Point 55 °F    
Average Humidity 45    
Maximum Humidity 55    
Minimum Humidity 34    
Precipitation  
Precipitation 0.55 in 0.14 in 2.43 in (1968)
Month to date precipitation 2.58 2.10  
Year to date precipitation 19.69 12.10  
Snow  
Snow 0.00 in 0.00 in 0.00 in ()
Month to date snowfall 0.0 0.0  
Since 1 July snowfall 22.7 24.6  
Snow Depth 0.00 in    
Sea Level Pressure  
Sea Level Pressure 29.81 in    
Wind  
Wind Speed 8 mph (WNW)    
Max Wind Speed 22 mph    
Max Gust Speed 31 mph    
Visibility 10 miles    
Events      
T = Trace of Precipitation, MM = Missing Value Source: NWS Daily Summary

Daily Weather History Graph

Daily Weather History Graph

Search for Another Location

Airport:

Trip Planner

Search our weather history database for the weather conditions in past years. The results will help you decide how hot, cold, wet, or windy it might be!

Date:

Astronomy

May. 15, 2013 Rise Set
Actual Time 5:41 AM CDT 8:09 PM CDT
Civil Twilight 5:10 AM CDT 8:40 PM CDT
Nautical Twilight 4:31 AM CDT 9:19 PM CDT
Astronomical Twilight 3:49 AM CDT 10:02 PM CDT
Moon 10:17 AM CDT (5/15) No Moon Set
Length of Visible Light 15h 29m
Length of Day
14h 27m
Waxing Crescent, 27% of the Moon is Illuminated
May 15
Waxing Crescent
May 17
First Quarter
May 24
Full
May 31
Last Quarter
Jun 8
New

Hourly Weather History & Observations

Time (CDT) Temp. Heat Index Dew Point Humidity Pressure Visibility Wind Dir Wind Speed Gust Speed Precip Events Conditions
12:54 AM 79.0 °F - 54.0 °F 42% 29.74 in 10.0 mi WSW 19.6 mph 29.9 mph N/A   Clear
1:54 AM 78.1 °F - 55.0 °F 45% 29.75 in 10.0 mi WSW 16.1 mph 31.1 mph N/A   Clear
2:54 AM 75.9 °F - 55.0 °F 48% 29.75 in 10.0 mi WSW 15.0 mph - N/A   Clear
3:54 AM 73.9 °F - 55.9 °F 53% 29.77 in 10.0 mi WSW 16.1 mph - N/A   Clear
4:54 AM 73.0 °F - 55.0 °F 53% 29.79 in 10.0 mi WSW 16.1 mph 27.6 mph N/A   Clear
5:54 AM 73.0 °F - 55.0 °F 53% 29.81 in 10.0 mi West 15.0 mph 25.3 mph N/A   Clear
6:54 AM 73.0 °F - 55.0 °F 53% 29.82 in 10.0 mi West 12.7 mph - N/A   Clear
7:54 AM 73.0 °F - 55.9 °F 55% 29.83 in 10.0 mi West 15.0 mph 21.9 mph N/A   Clear
8:54 AM 73.9 °F - 55.9 °F 53% 29.84 in 10.0 mi West 9.2 mph 19.6 mph N/A   Clear
9:54 AM 77.0 °F - 57.9 °F 52% 29.84 in 10.0 mi West 9.2 mph - N/A   Clear
10:54 AM 78.1 °F - 57.0 °F 48% 29.85 in 10.0 mi WNW 10.4 mph - N/A   Clear
11:54 AM 78.1 °F - 57.9 °F 50% 29.84 in 10.0 mi NNW 11.5 mph 17.3 mph N/A   Clear
12:54 PM 75.9 °F - 52.0 °F 43% 29.85 in 10.0 mi North 4.6 mph - N/A   Clear
1:54 PM 80.1 °F 80.4 °F 57.0 °F 45% 29.83 in 10.0 mi WNW 4.6 mph - N/A   Clear
2:54 PM 81.0 °F 81.3 °F 59.0 °F 47% 29.83 in 10.0 mi Variable 4.6 mph - N/A   Clear
3:54 PM 82.0 °F 81.7 °F 57.0 °F 42% 29.81 in 10.0 mi North 9.2 mph - N/A   Clear
4:54 PM 82.0 °F 81.2 °F 53.1 °F 37% 29.81 in 10.0 mi Variable 4.6 mph - N/A   Clear
5:54 PM 82.9 °F - 51.1 °F 33% 29.79 in 10.0 mi WNW 5.8 mph - N/A   Clear
6:54 PM 80.1 °F - 51.1 °F 36% 29.81 in 10.0 mi North - - N/A   Clear
7:54 PM 78.1 °F - 51.1 °F 39% 29.80 in 10.0 mi Calm Calm - N/A   Clear
8:54 PM 73.0 °F - 52.0 °F 48% 29.82 in 10.0 mi North 3.5 mph - N/A   Clear
9:54 PM 71.1 °F - 54.0 °F 55% 29.83 in 10.0 mi Calm Calm - N/A   Clear
10:54 PM 68.0 °F - 52.0 °F 56% 29.82 in 10.0 mi Calm Calm - N/A   Clear
11:54 PM 71.1 °F - 48.9 °F 45% 29.83 in 10.0 mi NNE 4.6 mph - N/A   Overcast